Location: Beaver Meadows
(40.3729°N, 105.6140°W)
Time: 09:12:22
(UTC-07:00)

Iridium 67 - Visible Passes

Search period start: 12 February 2016 00:00
Search period end: 22 February 2016 00:00
Orbit: 776 x 779 km, 86.4° (Epoch: 11 February)

Date Brightness Start Highest point End Pass type
(mag) Time Alt. Az. Time Alt. Az. Time Alt. Az.
12 Feb 8.6 05:26:28 10° NE 05:28:54 13° ENE 05:31:20 10° ESE visible
12 Feb 6.3 18:21:33 10° SE 18:25:53 28° E 18:30:14 10° NNE visible
12 Feb 7.2 20:01:49 10° SW 20:06:27 32° W 20:11:06 10° NNW visible
13 Feb 6.1 06:31:27 10° N 06:36:38 64° E 06:41:47 10° SSE visible
13 Feb 6.0 19:27:40 10° SSW 19:32:47 60° W 19:37:57 10° N visible
14 Feb 7.4 05:58:15 10° NNE 06:03:00 34° E 06:07:42 10° SE visible
14 Feb 5.4 18:54:05 10° S 18:59:15 74° E 19:04:28 10° N visible
14 Feb 8.6 20:38:29 10° W 20:40:34 12° WNW 20:42:40 10° NW visible
15 Feb 8.3 05:25:32 10° NNE 05:29:13 19° ENE 05:32:52 10° ESE visible
15 Feb 5.9 18:21:03 10° SSE 18:25:50 39° E 18:30:40 10° NNE visible
15 Feb 7.8 20:02:39 10° SW 20:06:42 23° WNW 20:10:45 10° NNW visible
16 Feb 9.0 04:55:03 10° ENE 04:55:18 10° ENE 04:55:32 10° ENE visible
16 Feb 6.8 19:28:04 10° SSW 19:32:57 41° W 19:37:52 10° NNW visible
17 Feb 6.6 05:58:06 10° N 06:03:10 50° E 06:08:13 10° SSE visible
17 Feb 5.7 18:54:09 10° S 18:59:20 77° W 19:04:34 10° N visible
18 Feb 7.8 05:25:04 10° NNE 05:29:29 27° E 05:33:52 10° SE visible
18 Feb 5.6 18:20:47 10° SSE 18:25:51 58° E 18:30:58 10° N visible
18 Feb 8.4 20:03:52 10° WSW 20:06:59 16° WNW 20:10:06 10° NW visible
19 Feb 8.6 04:52:41 10° NE 04:55:39 15° ENE 04:58:36 10° ESE visible
19 Feb 7.6 19:28:43 10° SW 19:33:10 28° W 19:37:39 10° NNW visible
20 Feb 5.8 05:58:05 10° N 06:03:19 73° E 06:08:30 10° S visible
20 Feb 6.4 18:54:25 10° SSW 18:59:28 52° W 19:04:34 10° N visible
21 Feb 7.0 05:24:49 10° NNE 05:29:42 39° E 05:34:32 10° SSE visible
21 Feb 5.5 18:20:43 10° S 18:25:54 84° E 18:31:09 10° N visible
21 Feb 8.8 20:06:13 10° W 20:07:20 11° WNW 20:08:26 10° WNW visible
